User: anonymous   Login
Location: Koussan�
(15.2012°N, 12.5548°W)
Time: 02:22:49
(UTC+00:00)
Language:

GPS 2-14 Rocket1 - Orbit

View from above orbital plane
View from above orbital plane
View from above satellite
View from above satellite

Ground track
Ground track

The orbit data is extracted from the following two-line orbital elements,

1 22015U 92039B   21018.02017682  .00001523  00000-0  43211-4 0  9997
2 22015  20.7156 319.0365 0046595 273.0750  86.4359 15.19421964589901
Epoch (UTC): 18 January 2021 00:29:03
Eccentricity: 0.0046595
inclination: 20.7156°
perigee height: 475 km
apogee height: 539 km
right ascension of ascending node: 319.0365°
argument of perigee: 273.0750°
revolutions per day: 15.19421964
mean anomaly at epoch: 86.4359°
orbit number at epoch: 58990

The dashed part of the orbit path shows where the satellite is in the earth's shadow,  

DLR